Location: Northeast Philadelphia Airport
(40.0833°N, 75.0000°W)
Time: 09:29:57
(UTC-05:00)

N. Korean satellite - Visible Passes

Search period start: 17 December 2018 00:00
Search period end: 27 December 2018 00:00
Orbit: 456 x 511 km, 97.2° (Epoch: 17 December)

Date Brightness Start Highest point End Pass type
(mag) Time Alt. Az. Time Alt. Az. Time Alt. Az.
17 Dec 7.0 06:09:14 10° NNE 06:12:50 65° E 06:16:28 10° S visible
17 Dec 9.3 18:18:42 10° SW 18:21:15 19° W 18:23:49 10° NW visible
18 Dec 8.7 05:44:58 10° NE 05:48:12 30° E 05:51:28 10° SSE visible
18 Dec 7.9 17:53:18 10° S 17:56:33 41° W 17:59:51 10° NNW visible
19 Dec 9.9 05:21:17 10° NE 05:23:30 15° E 05:25:43 10° SE visible
19 Dec 6.4 17:28:32 10° SSE 17:31:57 84° ENE 17:35:25 10° N visible
20 Dec 6.6 06:28:54 10° N 06:32:30 66° WNW 06:36:09 10° SSW visible
20 Dec 7.0 17:04:15 10° SE 17:07:25 37° ENE 17:10:38 10° N visible
20 Dec 10.0 18:40:06 10° WSW 18:41:03 11° W 18:42:02 10° WNW visible
21 Dec 7.3 06:04:20 10° NNE 06:07:56 56° E 06:11:34 10° S visible
21 Dec 9.1 18:13:33 10° SSW 18:16:18 22° W 18:19:04 10° NW visible
22 Dec 8.9 05:40:08 10° NE 05:43:17 27° E 05:46:27 10° SSE visible
22 Dec 7.5 17:48:17 10° S 17:51:36 48° W 17:54:58 10° NNW visible
23 Dec 10.0 05:16:39 10° ENE 05:18:33 14° E 05:20:28 10° SE visible
23 Dec 6.4 17:23:35 10° SSE 17:27:00 72° ENE 17:30:28 10° N visible
24 Dec 6.5 06:23:55 10° N 06:27:35 76° WNW 06:31:17 10° SSW visible
24 Dec 9.9 18:34:28 10° WSW 18:36:03 13° W 18:37:40 10° WNW visible
25 Dec 7.7 05:59:25 10° NNE 06:03:00 49° E 06:06:36 10° S visible
25 Dec 8.9 18:08:22 10° SSW 18:11:17 26° W 18:14:15 10° NW visible
26 Dec 9.2 05:35:18 10° NE 05:38:19 24° E 05:41:22 10° SSE visible
26 Dec 7.2 17:43:13 10° S 17:46:36 57° W 17:50:03 10° NNW visible
